Weather in Derzig-Aksy

Russia / Tyva Republic     51°27′24″N   95°36′26″E
temp.,
°C
wind,
m/s
gust,
m/s
humid.,
%
clouds,
%
prec.,
mm/h
press.,
hPa
HPBL,
m
5 march, fri
fri501:00−16ese12881 0.0 103520
04:00−18ese22880 0.0 103420
07:00−19se228915 0.0 103420
10:00−13se228426 0.0 1030185
13:00−7sse127531 0.0 1027364
16:00−4nne1279100 0.0 1024240
19:00−9w2292100 0.0 102721
22:00−12wnw1290100 0.0 103021
6 march, sat
sat601:00−14nnw0190100 0.0 103420
04:00−16e119394 0.0 103620
07:00−17e119459 0.0 103720
10:00−10sse118819 0.0 1034149
13:00−6nnw118647 0.0 1030262
16:00−4wnw118774 0.0 1026191
19:00−11nw119541 0.0 102821
22:00−14n009619 0.0 102821
7 march, sun
sun701:00−14se119749 0.0 102821
04:00−15se119776 0.0 102720
07:00−16se119357 0.0 102820
10:00−10s118574 0.0 1026145
13:00−6wnw118384 0.0 1025260
16:00−5wnw118987 0.0 1024170
19:00−10wnw119093 0.0 102721
22:00−12wnw0188100 0.0 102921
8 march, mon
mon801:00−15wnw009261 0.0 103021
04:00−16ese119330 0.0 103020
07:00−16se119357 0.0 103220
10:00−9sse118979 0.0 1029153
13:00−4wnw109049 0.0 1026265
16:00−3nw119432 0.0 1023170
19:00−7nw119960 0.0 102523
22:00−10nw119990 0.0 102721
9 march, tue
tue901:00−10n019991 0.0 102623
04:00−10nw119899 0.0 102724
07:00−10nnw0096100 0.1 103021
10:00−8nw1193100 0.0 1030206
13:00−5nw1190100 0.1 1029326
16:00−4wnw118982 0.0 1028230
19:00−11nnw119448 0.0 103021
22:00−12e01930 0.0 103121